TimeCEST,TemperatureF,Dew PointF,Humidity,Sea Level PressureIn,VisibilityMPH,Wind Direction,Wind SpeedMPH,Gust SpeedMPH,PrecipitationIn,Events,Conditions,WindDirDegrees,DateUTC
12:00 AM,48.2,44.6,87,30.09,-9999.0,Variable,2.3,-,N/A,,Clear,0,2012-10-19 22:00:00
12:30 AM,48.2,44.6,87,30.09,-9999.0,NNW,2.3,-,N/A,,Clear,330,2012-10-19 22:30:00
1:00 AM,46.4,44.6,93,30.09,-9999.0,NE,3.5,-,N/A,,Clear,40,2012-10-19 23:00:00
1:30 AM,46.4,44.6,93,30.09,-9999.0,Variable,2.3,-,N/A,,Clear,0,2012-10-19 23:30:00
2:00 AM,46,44,89,30.12,10,NE,6.7,,,,,50,2012-10-20 00:00:00
2:00 AM,46.4,44.6,93,30.09,-9999.0,NNE,4.6,-,N/A,,Clear,30,2012-10-20 00:00:00
2:30 AM,48.2,44.6,87,30.09,-9999.0,NNE,5.8,-,N/A,,Clear,20,2012-10-20 00:30:00
3:00 AM,48.2,44.6,87,30.09,-9999.0,ENE,5.8,-,N/A,,Clear,60,2012-10-20 01:00:00
3:30 AM,44.6,42.8,93,30.09,-9999.0,NNW,4.6,-,N/A,,Clear,340,2012-10-20 01:30:00
4:00 AM,44.6,42.8,93,30.06,-9999.0,North,3.5,-,N/A,,Clear,360,2012-10-20 02:00:00
4:30 AM,44.6,42.8,93,30.09,-9999.0,NNW,4.6,-,N/A,,Clear,330,2012-10-20 02:30:00
5:00 AM,44.6,41.0,87,30.09,-9999.0,NNW,3.5,-,N/A,,Clear,340,2012-10-20 03:00:00
5:30 AM,42.8,41.0,93,30.06,3.1,North,5.8,-,N/A,,Mist,360,2012-10-20 03:30:00
6:00 AM,42.8,41.0,93,30.06,3.1,NW,4.6,-,N/A,Fog,Shallow Fog,320,2012-10-20 04:00:00
6:30 AM,42.8,41.0,93,30.06,2.8,NW,4.6,-,N/A,Fog,Fog,310,2012-10-20 04:30:00
7:00 AM,42.8,39.2,87,30.09,3.1,NW,4.6,-,N/A,,Mist,320,2012-10-20 05:00:00
7:30 AM,42.8,39.2,87,30.09,3.7,North,3.5,-,N/A,Fog,Fog,350,2012-10-20 05:30:00
8:00 AM,42,40,90,30.14,4,NW,4.5,,,Fog,Patches of Fog,320,2012-10-20 06:00:00
8:00 AM,42.8,41.0,93,30.09,3.7,NW,4.6,-,N/A,Fog,Fog,320,2012-10-20 06:00:00
8:30 AM,42.8,41.0,93,30.09,4.3,NW,3.5,-,N/A,Fog,Fog,310,2012-10-20 06:30:00
9:00 AM,44.6,41.0,87,30.09,4.3,WNW,3.5,-,N/A,,Unknown,300,2012-10-20 07:00:00
9:30 AM,46.4,42.8,87,30.12,5.0,WNW,4.6,-,N/A,,Unknown,300,2012-10-20 07:30:00
10:00 AM,48.2,44.6,87,30.12,5.0,West,3.5,-,N/A,,Unknown,280,2012-10-20 08:00:00
10:30 AM,50.0,46.4,87,30.12,5.6,Variable,2.3,-,N/A,,Unknown,0,2012-10-20 08:30:00
11:00 AM,55.4,48.2,77,30.12,-9999.0,Calm,Calm,-,N/A,,Clear,0,2012-10-20 09:00:00
11:30 AM,57.2,48.2,72,30.12,-9999.0,Variable,2.3,-,N/A,,Clear,0,2012-10-20 09:30:00
11:49 AM,60.8,50.0,68,30.12,-9999.0,Variable,1.2,-,N/A,,Clear,0,2012-10-20 09:49:00
12:00 PM,60.8,50.0,68,30.12,-9999.0,Variable,2.3,-,N/A,,Clear,0,2012-10-20 10:00:00
12:30 PM,60.8,50.0,68,30.12,-9999.0,Variable,3.5,-,N/A,,Clear,0,2012-10-20 10:30:00
1:00 PM,62.6,50.0,63,30.12,-9999.0,Variable,2.3,-,N/A,,Clear,0,2012-10-20 11:00:00
1:30 PM,62.6,51.8,68,30.12,-9999.0,SSE,3.5,-,N/A,,Clear,160,2012-10-20 11:30:00
2:00 PM,63,51,56,30.11,6,SSW,2.2,,,,Clear,200,2012-10-20 12:00:00
2:00 PM,62.6,50.0,63,30.12,-9999.0,Variable,2.3,-,N/A,,Clear,0,2012-10-20 12:00:00
2:30 PM,64.4,50.0,59,30.12,-9999.0,SW,3.5,-,N/A,,Clear,220,2012-10-20 12:30:00
3:00 PM,64.4,50.0,59,30.09,-9999.0,SW,3.5,-,N/A,,Clear,230,2012-10-20 13:00:00
3:30 PM,64.4,50.0,59,30.09,-9999.0,SW,3.5,-,N/A,,Clear,220,2012-10-20 13:30:00
4:00 PM,64.4,50.0,59,30.09,-9999.0,Variable,2.3,-,N/A,,Clear,0,2012-10-20 14:00:00
4:30 PM,64.4,50.0,59,30.09,-9999.0,SW,3.5,-,N/A,,Clear,220,2012-10-20 14:30:00
5:00 PM,62.6,51.8,68,30.09,-9999.0,SW,4.6,-,N/A,,Clear,220,2012-10-20 15:00:00
5:30 PM,60.8,51.8,72,30.09,-9999.0,SW,4.6,-,N/A,,Clear,220,2012-10-20 15:30:00
6:00 PM,59.0,50.0,72,30.09,5.0,SW,4.6,-,N/A,,Unknown,230,2012-10-20 16:00:00
6:30 PM,57.2,50.0,77,30.09,5.0,SW,2.3,-,N/A,,Unknown,230,2012-10-20 16:30:00
7:00 PM,57.2,50.0,77,30.12,-9999.0,West,1.2,-,N/A,,Clear,280,2012-10-20 17:00:00
7:30 PM,55.4,50.0,82,30.12,5.0,NE,1.2,-,N/A,,Unknown,50,2012-10-20 17:30:00
8:00 PM,54,50,83,30.13,5,North,4.5,,,,Mist,0,2012-10-20 18:00:00
8:00 PM,55.4,50.0,82,30.12,5.0,Variable,1.2,-,N/A,,Unknown,0,2012-10-20 18:00:00
8:30 PM,53.6,48.2,82,30.12,5.0,Calm,Calm,-,N/A,,Unknown,0,2012-10-20 18:30:00
9:00 PM,50.0,48.2,94,30.12,3.1,ENE,2.3,-,N/A,,Mist,70,2012-10-20 19:00:00
9:30 PM,51.8,48.2,88,30.12,2.2,NNE,4.6,-,N/A,,Mist,20,2012-10-20 19:30:00
10:00 PM,51.8,48.2,88,30.12,2.5,NNE,6.9,-,N/A,,Mist,30,2012-10-20 20:00:00
10:30 PM,48.2,46.4,93,30.12,-9999.0,NW,2.3,-,N/A,,Mist,320,2012-10-20 20:30:00
11:00 PM,48.2,46.4,93,30.12,-9999.0,Variable,1.2,-,N/A,,Mist,0,2012-10-20 21:00:00
11:30 PM,48.2,46.4,93,30.12,-9999.0,Calm,Calm,-,N/A,,Mist,0,2012-10-20 21:30:00